Retour au catalogue

STARLINK-30587

ActifCommunicationsVLEO
NORAD 58064·PAYLOAD·🇺🇸 United States

Lancé Oct 13, 2023 depuis Cape Canaveral Space Force Station

Loading…

Prochains Passages (prochaines 24 heures)

TLE

FraisSource: CelesTrak SupGP

Époque: Sep 14, 2026, 22:18 UTC

1 58064C 23158P   26257.92965278  .00042663  00000+0  15452-2 0  2578
2 58064  43.0044  38.0579 0001773 272.3482 131.4628 15.27558481    10

Suivez STARLINK-30587 en temps réel avec AllMySat

Download on the App Store